�搅�E���B���j�^�v������
Date,Time,�搅(cps),���B(cps),���J
2024/05/31,00:00,8.2,4.4,��
2024/05/31,00:10,8.0,4.5,��
2024/05/31,00:20,8.0,4.5,��
2024/05/31,00:30,8.1,4.5,��
2024/05/31,00:40,8.2,4.5,��
2024/05/31,00:50,8.2,4.6,��
2024/05/31,01:00,8.0,4.5,��
2024/05/31,01:10,8.0,4.6,��
2024/05/31,01:20,8.2,4.3,��
2024/05/31,01:30,8.1,4.5,��
2024/05/31,01:40,8.2,4.6,��
2024/05/31,01:50,8.3,4.5,��
2024/05/31,02:00,8.0,4.5,��
2024/05/31,02:10,8.1,4.5,��
2024/05/31,02:20,8.2,4.6,��
2024/05/31,02:30,8.0,4.7,��
2024/05/31,02:40,8.1,4.5,��
2024/05/31,02:50,8.3,4.6,��
2024/05/31,03:00,8.1,4.5,��
2024/05/31,03:10,8.0,4.7,��
2024/05/31,03:20,8.0,4.5,��
2024/05/31,03:30,8.1,4.5,��
2024/05/31,03:40,8.0,4.5,�L
2024/05/31,03:50,7.9,4.5,�L
2024/05/31,04:00,8.0,4.5,�L
2024/05/31,04:10,8.1,4.5,�L
2024/05/31,04:20,8.4,4.5,�L
2024/05/31,04:30,8.0,4.5,�L
2024/05/31,04:40,8.2,4.6,�L
2024/05/31,04:50,8.2,4.6,�L
2024/05/31,05:00,8.5,4.6,�L
2024/05/31,05:10,8.2,4.5,�L
2024/05/31,05:20,8.1,4.7,�L
2024/05/31,05:30,8.2,4.6,�L
2024/05/31,05:40,8.2,4.7,�L
2024/05/31,05:50,8.4,4.7,�L
2024/05/31,06:00,8.4,4.6,�L
2024/05/31,06:10,8.5,4.5,�L
2024/05/31,06:20,8.5,4.7,�L
2024/05/31,06:30,8.5,4.5,�L
2024/05/31,06:40,8.5,4.5,�L
2024/05/31,06:50,8.5,4.7,�L
2024/05/31,07:00,8.5,4.7,�L
2024/05/31,07:10,8.6,4.6,�L
2024/05/31,07:20,8.3,4.6,�L
2024/05/31,07:30,8.4,4.7,�L
2024/05/31,07:40,8.9,4.7,�L
2024/05/31,07:50,8.5,4.7,�L
2024/05/31,08:00,8.4,4.8,�L
2024/05/31,08:10,8.4,4.7,�L
2024/05/31,08:20,8.4,4.6,�L
2024/05/31,08:30,8.5,4.7,�L
2024/05/31,08:40,8.4,4.6,�L
2024/05/31,08:50,8.4,4.7,�L
2024/05/31,09:00,8.5,4.7,�L
2024/05/31,09:10,8.5,4.7,�L
2024/05/31,09:20,8.4,4.8,�L
2024/05/31,09:30,8.3,4.7,�L
2024/05/31,09:40,8.7,4.6,�L
2024/05/31,09:50,8.6,4.6,�L
2024/05/31,10:00,8.6,4.8,�L
2024/05/31,10:10,8.6,4.7,�L
2024/05/31,10:20,8.6,4.8,�L
2024/05/31,10:30,8.8,4.7,�L
2024/05/31,10:40,8.7,4.8,�L
2024/05/31,10:50,9.0,4.8,�L
2024/05/31,11:00,8.9,4.8,�L
2024/05/31,11:10,9.0,4.8,�L
2024/05/31,11:20,9.0,5.0,�L
2024/05/31,11:30,9.0,4.7,�L
2024/05/31,11:40,8.8,4.8,�L
2024/05/31,11:50,8.9,4.8,�L
2024/05/31,12:00,8.9,4.9,�L
2024/05/31,12:10,8.8,4.8,�L
2024/05/31,12:20,8.9,4.8,�L
2024/05/31,12:30,8.8,4.7,�L
2024/05/31,12:40,8.7,4.9,�L
2024/05/31,12:50,8.7,4.8,�L
2024/05/31,13:00,8.7,4.8,�L
2024/05/31,13:10,8.9,5.0,�L
2024/05/31,13:20,8.7,4.7,�L
2024/05/31,13:30,8.6,4.8,�L
2024/05/31,13:40,8.9,4.8,�L
2024/05/31,13:50,8.9,4.7,�L
2024/05/31,14:00,9.1,4.6,�L
2024/05/31,14:10,9.0,4.7,�L
2024/05/31,14:20,9.3,4.8,�L
2024/05/31,14:30,9.5,4.9,�L
2024/05/31,14:40,9.6,4.9,�L
2024/05/31,14:50,9.6,5.1,��
2024/05/31,15:00,9.3,4.9,��
2024/05/31,15:10,9.1,5.0,��
2024/05/31,15:20,9.0,5.0,��
2024/05/31,15:30,8.9,4.9,�L
2024/05/31,15:40,8.8,4.7,��
2024/05/31,15:50,8.9,4.8,��
2024/05/31,16:00,8.8,4.6,�L
2024/05/31,16:10,8.6,4.6,�L
2024/05/31,16:20,8.5,4.5,�L
2024/05/31,16:30,8.4,4.5,�L
2024/05/31,16:40,8.3,4.7,��
2024/05/31,16:50,8.5,4.6,��
2024/05/31,17:00,8.5,4.5,�L
2024/05/31,17:10,8.4,4.6,�L
2024/05/31,17:20,8.5,4.4,��
2024/05/31,17:30,8.2,4.5,��
2024/05/31,17:40,8.1,4.5,��
2024/05/31,17:50,8.0,4.5,��
2024/05/31,18:00,8.0,4.7,��
2024/05/31,18:10,8.3,4.6,��
2024/05/31,18:20,8.0,4.4,��
2024/05/31,18:30,8.0,4.6,�L
2024/05/31,18:40,8.1,4.5,�L
2024/05/31,18:50,8.1,4.4,�L
2024/05/31,19:00,8.1,4.5,��
2024/05/31,19:10,8.3,4.4,��
2024/05/31,19:20,8.3,4.4,��
2024/05/31,19:30,8.1,4.5,��
2024/05/31,19:40,8.0,4.6,��
2024/05/31,19:50,8.2,4.4,�L
2024/05/31,20:00,8.3,4.5,�L
2024/05/31,20:10,8.3,4.5,�L
2024/05/31,20:20,8.1,4.5,��
2024/05/31,20:30,8.3,4.4,��
2024/05/31,20:40,8.0,4.4,��
2024/05/31,20:50,8.0,4.5,��
2024/05/31,21:00,7.9,4.5,��
2024/05/31,21:10,8.2,4.4,��
2024/05/31,21:20,8.0,4.6,��
2024/05/31,21:30,8.0,4.5,��
2024/05/31,21:40,8.1,4.5,��
2024/05/31,21:50,8.1,4.4,�L
2024/05/31,22:00,8.1,4.4,��
2024/05/31,22:10,8.0,4.5,�L
2024/05/31,22:20,8.0,4.4,�L
2024/05/31,22:30,7.7,4.5,�L
2024/05/31,22:40,7.9,4.4,�L
2024/05/31,22:50,7.9,4.4,�L
2024/05/31,23:00,8.1,4.5,�L
2024/05/31,23:10,8.0,4.5,�L
2024/05/31,23:20,8.2,4.4,�L
2024/05/31,23:30,8.3,4.5,�L
2024/05/31,23:40,8.4,4.5,�L
2024/05/31,23:50,8.2,4.6,�L
